#timestamp,LO_Frequency,Hit,StdDev 
1519552815.2,286046999.4,N
1519552835.0,286046998.5,N
1519552835.9,286046998.5,N
1519552855.7,286047001.2,N
1519552875.6,286047000.1,N
1519552895.4,286047001.0,N
1519552915.3,286046998.7,N
1519552935.1,286046998.8,N
1519552955.8,286046999.1,N
1519552975.7,286046998.4,N
1519552995.5,286046998.6,N
1519553015.4,286046998.9,N
1519553035.2,286046998.8,N
1519553055.0,286047000.6,N
1519553055.9,286047000.6,N
1519553075.8,286046998.9,N
1519553095.6,286046998.7,N
1519553115.5,286046998.6,N
1519553135.3,286046998.7,N
1519553155.1,286046998.8,N
1519553175.9,286046999.6,N
1519553195.7,286046999.6,N
1519553215.6,286046999.1,N
1519553235.4,286046998.4,N
1519553255.2,286046999.3,N
1519553275.1,286046999.0,N
1519553276.0,286046999.0,N
1519553295.8,286047000.8,N
1519553315.6,286047000.3,N
1519553335.5,286047000.0,N
1519553355.3,286047000.2,N
1519553375.2,286047000.6,N
1519553395.9,286046999.9,N
1519553415.7,286047000.7,N
1519553435.6,286046998.2,N
1519553455.4,286047001.1,N
1519553475.2,286046998.1,N
1519553495.1,286047000.6,N
1519553496.0,286047000.6,N
1519553515.8,286046998.5,N
1519553535.7,286047000.9,N
1519553555.5,286047000.6,N
1519553575.4,286047000.5,N
1519553595.2,286047000.4,N
1519553615.0,286047000.0,N
1519553615.9,286047000.0,N
1519553635.8,286047000.6,N
1519553655.6,286047008.4,Y
1519553675.5,286047014.8,P
1519553695.3,286047011.6,N
1519553715.1,286047008.7,N
1519553735.9,286047005.1,N
1519553755.7,286047002.9,N
1519553775.6,286047004.3,N
1519553795.4,286047001.6,N
1519553815.2,286047001.6,N
1519553835.1,286047000.4,N
1519553836.0,286047000.4,N
1519553855.8,286047000.8,N
1519553875.6,286046998.1,N
1519553895.5,286047000.8,N
1519553915.3,286046998.5,N
1519553935.2,286047001.2,N
1519553955.0,286047001.1,N
1519553955.9,286047001.1,N
1519553975.7,286046998.3,N
1519553995.6,286046998.1,N
1519554015.4,286047000.6,N
1519554035.3,286047000.4,N
1519554055.1,286047000.9,N
1519554075.9,286047000.7,N
1519554095.7,286047001.2,N
1519554115.6,286047000.6,N
1519554135.4,286047001.0,N
1519554155.2,286047000.3,N
1519554175.1,286047000.6,N
1519554176.0,286047000.6,N
1519554195.8,286046998.6,N
1519554215.7,286046999.9,N
1519554235.5,286047001.1,N
1519554255.3,286046999.1,N
1519554275.2,286046998.6,N
1519554295.0,286047000.7,N
1519554295.9,286047000.7,N
1519554315.8,286047001.2,N
1519554335.6,286046998.2,N
1519554355.4,286046998.3,N
1519554375.3,286046998.3,N
1519554395.1,286047000.8,N
1519554415.8,286046999.0,N
1519554435.7,286046998.3,N
1519554455.5,286046998.6,N
1519554475.4,286046998.6,N
1519554495.2,286046998.4,N
1519554515.0,286046998.8,N
1519554515.9,286046998.8,N
1519554535.8,286046999.5,N
1519554555.6,286046999.5,N
1519554575.4,286046999.4,N
1519554595.3,286046998.1,N
1519554615.1,286046998.5,N
1519554635.9,286046998.9,N
1519554655.7,286046998.1,N
1519554675.5,286047001.2,N
1519554695.4,286047000.4,N
1519554715.2,286047001.2,N
1519554735.0,286046998.5,N
1519554735.9,286046998.5,N
1519554755.8,286047001.2,N
1519554775.6,286046999.9,N
1519554795.5,286046998.1,N
1519554815.3,286047000.0,N
1519554835.1,286047000.0,N
1519554855.9,286046998.5,N
1519554875.7,286046999.3,N
1519554895.5,286046999.5,N
1519554915.4,286046999.1,N
1519554935.2,286046997.0,Y
1519554955.1,286046996.6,P
1519554956.0,286046996.6,N
1519554975.8,286046999.4,N
1519554995.6,286046999.1,N
1519555015.5,286047001.1,N
1519555035.3,286047000.3,N
1519555055.2,286047002.6,N
1519555075.9,286047002.7,N
1519555095.7,286046999.9,N
1519555115.6,286047000.0,N
1519555135.4,286047001.0,N
1519555155.2,286047001.2,N
1519555175.1,286046998.2,N
1519555176.0,286046998.2,N
1519555195.8,286047001.2,N
1519555215.7,286047001.0,N
1519555235.5,286047000.5,N
1519555255.3,286047000.3,N
1519555275.2,286046998.2,N
1519555295.0,286047000.5,N
1519555295.9,286047000.5,N
1519555315.7,286047002.7,N
1519555335.6,286046999.9,N
1519555355.4,286047000.9,N
1519555375.3,286047000.6,N
1519555395.1,286047000.5,N
1519555396.0,286047000.5,N
1519555415.8,286047000.1,N
1519555435.7,286047011.9,Y
1519555455.5,286047000.3,P
1519555475.3,286047000.3,P
1519555495.2,286047000.0,N
1519555515.0,286046999.8,N
1519555515.9,286046999.8,N
1519555535.8,286047002.4,Y
1519555555.6,286046999.7,P
1519555575.4,286047000.5,N
1519555625.3,286047000.5,E
1519555635.2,286047000.0,N
1519555655.1,286047000.8,P
1519555656.0,286047000.8,N
1519555675.8,286046998.8,Y
1519555695.6,286046999.0,P
1519555715.5,286046998.9,N
1519555735.3,286046999.4,N
1519555755.2,286046996.5,Y
1519555775.9,286046999.5,P
1519555795.7,286046999.4,P
1519555815.6,286046999.0,P
1519555835.4,286046999.4,Y
1519555855.2,286046998.6,P
1519555875.1,286046998.7,P
1519555876.0,286046998.7,P
1519555895.8,286046999.6,N
1519555915.7,286046998.7,Y
1519555935.5,286046998.5,P
1519555955.3,286047000.9,P
1519555975.2,286047001.0,N
1519555995.0,286046998.6,N
1519555995.9,286046998.6,N
1519556015.8,286046999.9,N
1519556035.6,286047000.1,N
1519556055.4,286047001.0,N
1519556075.3,286047001.1,N
1519556095.1,286047000.5,N
1519556115.8,286047000.8,N
1519556135.7,286046998.4,N
1519556155.5,286046996.5,Y
1519556175.4,286046996.9,P
1519556195.2,286046996.7,N
1519556215.0,286046998.1,N
1519556215.9,286046998.1,N
1519556235.8,286046998.9,N
1519556255.6,286046999.4,N
1519556275.5,286046996.7,N
1519556295.3,286046997.1,N
1519556315.1,286046996.9,N
1519556365.9,286046995.8,E
1519556375.8,286046996.5,N
1519556395.7,286047000.2,P
